Regional Weather Roundup
Issued by NWS

Home | Current Version | Previous Version | Graphics & Text | Print | Product List | Glossary On
Versions: 1 2 3 4 5 6 7 8 9 10 11 12 13 14 15 16 17 18 19 20 21 22 23 24 25 26 27 28 29 30 31 32 33 34 35 36 37 38 39 40 41 42 43 44 45 46 47 48 49 50
000
ASUS45 KABQ 010001
RWRNM
WEATHER ROUNDUP FOR NEW MEXICO
NATIONAL WEATHER SERVICE ALBUQUERQUE NM
500 PM MST SAT FEB 28 2015

NOTE: "FAIR" MEANS FEW OR NO CLOUDS BELOW 12,000 FEET AGL WITH NO
       SIGNIFICANT WEATHER OR OBSTRUCTIONS TO VISION.

      THIS PRODUCT IS RELEASED AS TWO VERSIONS.  ONE VERSION NEAR
      THE TOP OF THE HOUR CONTAINING PRELIMINARY DATA FROM ALBUQUERQUE
      AND OTHER STATIONS.  A FINAL VERSION WITH ADDITIONAL DATA IS
      ISSUED ABOUT 10 MINUTES AFTER THE HOUR.

NMZ501-503-504-510>518-010100-
NORTHWEST PLATEAU/NORTHCENTRAL MOUNTAINS

CITY           SKY/WX    TMP DP  RH WIND       PRES   REMARKS
FARMINGTON     LGT SNOW  33  32  96 E7        29.83S FOG     WCI  27
6HR MIN TEMP:  30; 6HR MAX TEMP:  34; 6HR PCP:  0.14;

SANTA FE       LGT SNOW  33  28  81 CALM      29.90R
6HR MIN TEMP:  24; 6HR MAX TEMP:  33; 6HR PCP:  0.01;

TAOS           PTSUNNY   27  21  80 CALM      29.88S
ANGEL FIRE     LGT SNOW  34  29  83 SW10G20   29.85R WCI  26

$$
NMZ402-403-502-505>509-010100-
WESTCENTRAL MOUNTAINS/SOUTHWEST MOUNTAINS

CITY           SKY/WX    TMP DP  RH WIND       PRES   REMARKS
GALLUP         CLOUDY    45  34  65 SW26G36   29.83R
6HR MIN TEMP:  39; 6HR MAX TEMP:  47; 6HR PCP:  0.03;

SILVER CITY    PTSUNNY   57  36  44 W18G25    29.94R

$$
NMZ407-409-411-412-010100-
SOUTHERN DESERTS

CITY           SKY/WX    TMP DP  RH WIND       PRES   REMARKS
DEMING         MOSUNNY   66  35  31 SW26G35   29.87S
6HR MIN TEMP:  45; 6HR MAX TEMP:  70;

HOLLOMAN AFB   CLOUDY    62  28  27 S13       29.88F
ALAMOGORDO     CLOUDY    59  28  31 S14G24    29.91S
T OR C         CLOUDY    62  34  35 SW15G24   29.85R
6HR MIN TEMP:  46; 6HR MAX TEMP:  62;


$$
NMZ519>523-010100-
CENTRAL VALLEYS/CENTRAL HIGHLANDS

CITY           SKY/WX    TMP DP  RH WIND       PRES   REMARKS
ALBUQUERQUE    PTSUNNY   35  26  69 N15       29.91R WCI  25
6HR MIN TEMP:  27; 6HR MAX TEMP:  38;

DOUBLE EAGLE   PTSUNNY   34  27  75 NW8       29.91R WCI  27
CLINES CORNERS SUNNY     39  31  72 SW18      29.87R WCI  30
6HR MIN TEMP:  12; 6HR MAX TEMP:  40;

BELEN          FAIR      41  31  68 NW15      29.89R
6HR MIN TEMP:  30; 6HR MAX TEMP:  48;

SOCORRO          N/A     58  32  36 SE9       29.87S
6HR MIN TEMP:  41; 6HR MAX TEMP:  60;


$$
NMZ524>526-539-540-010100-
SOUTHCENTRAL MOUNTAINS

CITY           SKY/WX    TMP DP  RH WIND       PRES   REMARKS
RUIDOSO        NOT AVBL

$$
NMZ527>531-010100-
NORTHEAST HIGHLANDS/NORTHEAST PLAINS

CITY           SKY/WX    TMP DP  RH WIND       PRES   REMARKS
LAS VEGAS      MOCLDY    24  22  91 S14       29.87S WCI  12
6HR MIN TEMP:  17; 6HR MAX TEMP:  26; 6HR PCP: TRACE;

RATON          MOCLDY    20  15  81 SW5       29.89R WCI  13
6HR MIN TEMP:  15; 6HR MAX TEMP:  22;

CLAYTON        PTCLDY    22  17  81 S9        29.96R WCI  12
6HR MIN TEMP:  19; 6HR MAX TEMP:  25; 6HR PCP:  0.05;


$$
NMZ532>537-010100-
EASTCENTRAL PLAINS

CITY           SKY/WX    TMP DP  RH WIND       PRES   REMARKS
TUCUMCARI      CLOUDY    25  20  81 SW12      30.02R WCI  14
6HR MIN TEMP:  23; 6HR MAX TEMP:  26;

CANNON AFB     CLOUDY    26  24  91 SW9       30.03S WCI  17
6HR MIN TEMP:  18; 6HR MAX TEMP:  26;

CLOVIS AIRPORT CLOUDY    25  21  86 S10       30.04S WCI  15

$$
NMZ028-029-538-010100-
SOUTHEAST PLAINS

CITY           SKY/WX    TMP DP  RH WIND       PRES   REMARKS
ROSWELL        CLOUDY    28  24  85 CALM      30.05R
6HR MIN TEMP:  23; 6HR MAX TEMP:  28;

ARTESIA        CLOUDY    30  28  93 S7        30.07R WCI  23
CARLSBAD       CLOUDY    31  26  82 SE9       30.06R WCI  23
6HR MIN TEMP:  26; 6HR MAX TEMP:  32;

HOBBS          CLOUDY    28  28 100 SE5       30.08R FOG     WCI  23


$$


USA.gov is the U.S. government's official web portal to all federal, state and local government web resources and services.